Regional Weather Roundup
Issued by NWS

Home | Current Version | Previous Version | Text Only | Print | Product List | Glossary Off
Versions: 1 2 3 4 5 6 7 8 9 10 11 12 13 14 15 16 17 18 19 20 21 22 23 24 25 26 27 28 29 30 31 32 33 34 35 36 37 38 39 40 41 42 43 44 45 46 47 48 49 50

000
ASUS45 KSLC 210010
RWRUT

UTAH REGIONAL WEATHER ROUNDUP
NATIONAL WEATHER SERVICE SALT LAKE CITY UT
600 PM MDT FRI OCT 20 2017

UTZ001>011-023>025-210100-

NORTHERN UTAH

CITY           SKY/WX    TMP DP  RH WIND       PRES   REMARKS
BRIGHAM CITY   MOCLDY    50  28  42 W3        29.89R
HILL AFB       CLOUDY    46  29  52 CALM      29.88S
LOGAN          MOCLDY    45  36  70 CALM      29.87S
OGDEN          CLOUDY    48  30  49 CALM      29.88R
SALT LAKE CITY MOCLDY    50  33  52 CALM      29.88S
TOOELE VALLEY  PTCLDY    50  27  40 NW14G20   29.89R
WENDOVER       PTCLDY    50  21  32 NW18      29.93R
WEST JORDAN    MOCLDY    45  32  60 CALM      29.90R

$$

UTZ011>015-024>027-210100-

CENTRAL/NORTHEAST UTAH

CITY           SKY/WX    TMP DP  RH WIND       PRES   REMARKS
PROVO AIRPORT  CLOUDY    48  27  44 N16G23    29.89S
MOAB/CANYONLAN MOCLDY    72  24  16 SW22G33   29.53F
DELTA          CLOUDY    52  16  24 N25G31    29.85R
PRICE          MOCLDY    51  29  42 NW28G40   29.70R
RICHFIELD      CLOUDY    50  34  53 CALM      29.87R
ROOSEVELT      CLOUDY    55  28  35 W33G43    29.69R
VERNAL         CLOUDY    60  28  29 SW20G28   29.62R

$$

UTZ013>016-019>022-027-210100-

SOUTHERN UTAH

CITY           SKY/WX    TMP DP  RH WIND       PRES   REMARKS
BRYCE CANYON   CLOUDY    53  28  38 SW18G28   29.82S
CEDAR CITY     CLOUDY    51  42  71 SW12G23   29.80R
MILFORD        MOCLDY    55  21  26 NE18G31   29.81R
ST GEORGE      CLOUDY    75  33  21 W18       29.69S
HANKSVILLE     CLOUDY    66  30  26 NW30G38   29.62R
KANAB          CLEAR     64  28  25 SW18G26   29.79
BLANDING         N/A     68  19  15 SW15G31   29.75S

$$

REGIONAL REPORTS     COLORADO/ARIZONA

CITY           SKY/WX    TMP DP  RH WIND       PRES   REMARKS
CRAIG, CO      CLOUDY    63  25  23 S17G26    29.60F
GRAND JUNCTION CLEAR     71  28  20 S10       29.56F
RIFLE, CO      CLOUDY    68  25  19 SW20G29   29.61F
MONTROSE, CO   CLOUDY    68  23  18 SW13G24   29.69F
CORTEZ, CO     CLOUDY    70  22  16 SW16G23   29.73F
COLORADO CITY    N/A     68  32  26 SW16      29.80F
PAGE, AZ       PTCLDY    72  29  20 W17G31    29.63R
GRAND CANYON   PTCLDY    62  27  26 W20G37    29.84F
KINGMAN, AZ    PTCLDY    71  36  27 SW18      29.79R
FLAGSTAFF, AZ  CLEAR     56  34  43 SW30G39   29.91R

$$

REGIONAL REPORTS    NEVADA/IDAHO/WYOMING

CITY           SKY/WX    TMP DP  RH WIND       PRES   REMARKS
LAS VEGAS, NV  PTSUNNY   78  38  23 W15G21    29.71R
ELY, NY        CLEAR     46   8  21 NW17G23   29.93R
ELKO, NV       CLOUDY    47  17  30 W14       29.94S
POCATELLO, ID  PTCLDY    43  31  62 SW30G45   29.82S
BURLEY, ID     LGT RAIN  41  34  76 W13       29.88R
FORT BRIDGER,  MOCLDY    35  33  92 W21G28    29.84F WCI  24
EVANSTON, WY   CLOUDY    33  29  85 SW18      29.87R WCI  22
ROCK SPRINGS,  CLOUDY    39  23  52 W23G35    29.77R WCI  28

$$



USA.gov is the U.S. government's official web portal to all federal, state and local government web resources and services.